Вернуться в каталог

KUIPER-00033

АктивенСвязьLEO
NORAD 63746·PAYLOAD·🇺🇸 United States

Запущен Apr 28, 2025 с Cape Canaveral Space Force Station

Loading…

Ближайшие Пролёты (ближайшие 24 часа)

TLE

СвежийSource: CelesTrak SupGP

Эпоха: Sep 14, 2026, 19:10 UTC

1 63746C 25088Y   26257.79885417  .00007320  00000+0  95819-3 0  2573
2 63746  51.9018   9.3449 0000322 101.2651 184.0485 14.79926768    14

Отслеживайте KUIPER-00033 в реальном времени с AllMySat

Download on the App Store